Location: Pacheco
(37.9835°N, 122.0752°W)
Time: 02:25:34
(UTC+00:00)

Cosmos 1461 - Visible Passes

Search period start: 19 July 2024 00:00
Search period end: 29 July 2024 00:00
Orbit: 499 x 577 km, 65.0° (Epoch: 18 July)

Date Brightness Start Highest point End Pass type
(mag) Time Alt. Az. Time Alt. Az. Time Alt. Az.
19 Jul 5.5 07:56:00 10° NNE 07:57:36 14° NE 07:57:36 14° NE visible
19 Jul 5.5 09:32:53 10° NW 09:32:59 11° NW 09:32:59 11° NW visible
20 Jul 5.4 07:47:05 10° N 07:48:38 16° NNE 07:48:38 16° NNE visible
21 Jul 5.3 07:38:11 10° N 07:39:43 17° NNE 07:39:43 17° NNE visible
22 Jul 5.3 07:29:18 10° N 07:30:50 18° NNE 07:30:50 18° NNE visible
23 Jul 5.2 07:20:26 10° N 07:21:58 20° N 07:21:58 20° N visible
24 Jul 5.1 07:11:33 10° NNW 07:13:08 21° N 07:13:08 21° N visible
25 Jul 5.0 07:02:39 10° NNW 07:04:19 23° N 07:04:19 23° N visible
26 Jul 4.9 06:53:45 10° NNW 06:55:30 24° N 06:55:30 24° N visible
27 Jul 4.7 06:44:50 10° NNW 06:46:41 27° NNW 06:46:41 27° NNW visible
28 Jul 4.6 06:35:54 10° NNW 06:37:53 29° NNW 06:37:53 29° NNW visible
